This is the latest recevied weather packets stored in our database for station/object KC1ELF. If no packets are shown the sender has not sent any weather packets the latest 10 day(s).
| Time | Temp. | Humidity | Pressure | Rain* | Wind** | Luminosity | Snow |
|---|---|---|---|---|---|---|---|
| 1777695696 | 7.78° C | 70% | 1011.3 hPa | 0 mm | - | - | - |
| 1777695095 | 7.22° C | 70% | 1011.2 hPa | 0 mm | - | - | - |
| 1777694495 | 7.22° C | 71% | 1011.2 hPa | 0 mm | - | - | - |
| 1777693896 | 7.22° C | 69% | 1011.2 hPa | 0 mm | - | - | - |
| 1777693296 | 6.67° C | 68% | 1011.1 hPa | 0 mm | - | - | - |
| 1777692698 | 6.67° C | 66% | 1011 hPa | 0 mm | - | - | - |
| 1777692096 | 6.67° C | 68% | 1011 hPa | 0 mm | - | - | - |
| 1777691496 | 6.67° C | 68% | 1011 hPa | 0 mm | - | - | - |
| 1777690896 | 6.67° C | 71% | 1011.1 hPa | 0 mm | - | - | - |
| 1777690296 | 6.67° C | 70% | 1011 hPa | 0 mm | - | - | - |
| 1777689696 | 6.67° C | 65% | 1011 hPa | 0 mm | - | - | - |
| 1777689095 | 6.67° C | 65% | 1011.1 hPa | 0 mm | - | - | - |
| 1777688496 | 6.67° C | 62% | 1011 hPa | 0 mm | - | - | - |
| 1777687897 | 7.22° C | 61% | 1011 hPa | 0 mm | - | - | - |
| 1777687296 | 7.22° C | 60% | 1011 hPa | 0 mm | - | - | - |
| 1777686695 | 7.22° C | 58% | 1011.2 hPa | 0 mm | - | - | - |
| 1777686095 | 7.78° C | 58% | 1011 hPa | 0 mm | - | - | - |
| 1777685496 | 7.78° C | 58% | 1010.7 hPa | 0 mm | - | - | - |
| 1777684896 | 8.33° C | 58% | 1010.8 hPa | 0 mm | - | - | - |
| 1777684295 | 8.89° C | 56% | 1010.7 hPa | 0 mm | - | - | - |
| 1777683696 | 8.89° C | 55% | 1010.6 hPa | 0 mm | - | - | - |
| 1777683096 | 9.44° C | 52% | 1010.4 hPa | 0 mm | - | - | - |
| 1777682495 | 10° C | 52% | 1010.2 hPa | 0 mm | - | - | - |
| 1777681896 | 10° C | 50% | 1010.2 hPa | 0 mm | - | - | - |
| 1777681296 | 10.56° C | 49% | 1010 hPa | 0 mm | - | - | - |
* Rain latest hour (hover to see other rain measurements)
** Current wind speed in m/s (hover to see current wind gust speed)